[[{"header":{"parameterUnit":"m.s-1","parameterCategory":1,"la1":30.2991,"la2":30.254,"lo1":-89.0895,"lo2":-89.0444,"dy":0.0017,"dx":0.0017,"nx":28,"ny":28,"refTime":"2024-12-26T09:00:00:Z","depth":0,"parameterNumber":2,"parameterNumberName":"U-component_of_WINDS"},"data":[0,0,0,0,0,0,0,0,0,0,0,0,0,0,0,0,0,0,0,0,0,0,0,0,0,0,0,0,0,0,0,0,0,0,0,0,0,0,0,0,0,0,0,0,0,0,0,0,0,0,0,0,0,0,0,0,0,0,-5.2858,-5.286,0,-5.3019,-5.3021,-5.3023,-5.2934,-5.293,-5.2925,-5.2921,-5.3096,-5.3105,-5.3113,0,0,0,0,0,0,0,0,0,0,0,0,0,-5.2485,-5.2492,-5.2858,-5.286,-5.2862,-5.3019,-5.3021,-5.3023,-5.2935,-5.293,-5.2924,-5.2919,-5.3093,-5.3104,-5.3114,0,0,0,0,0,0,0,0,0,0,0,0,0,-5.2647,-5.2495,-5.2858,-5.2837,-5.2837,-5.3018,-5.3021,-5.3024,-5.2936,-5.293,-5.2923,-5.2917,-5.309,-5.3103,-5.3116,-5.333,0,0,-5.3156,-5.3162,0,0,0,0,0,0,0,0,-5.2638,-5.2661,-5.2838,-5.2839,-5.2839,-5.2949,-5.2953,-5.3127,-5.2938,-5.2899,-5.2921,-5.2913,-5.3054,-5.3069,-5.3114,-5.3338,-5.3346,-5.3157,-5.3165,-5.3171,-5.3174,0,0,0,0,0,0,0,-5.2627,-5.2653,-5.2922,-5.2841,-5.2841,-5.2823,-5.2838,-5.2986,-5.3012,-5.2902,-5.2896,-5.2915,-5.3052,-5.3102,-5.3118,-5.3348,-5.3157,-5.3168,-5.3177,-5.3182,-5.3759,-5.3766,0,0,0,0,0,0,-5.2616,-5.2645,-5.2917,-5.2927,-5.2719,-5.2835,-5.2852,-5.2921,-5.301,-5.3017,-5.2921,-5.2911,-5.3083,-5.3102,-5.3124,-5.3381,-5.3171,-5.3183,-5.3191,-5.3751,-5.376,-5.3768,0,0,0,0,0,0,-5.2608,-5.2641,-5.291,-5.2784,-5.2817,-5.2848,-5.2926,-5.2928,-5.2976,-5.3024,-5.3029,-5.2966,-5.3078,-5.3105,-5.3279,-5.3386,-5.3189,-5.3201,-5.3743,-5.3754,-5.3764,-5.3898,0,0,0,0,0,0,-5.2597,-5.2638,-5.2718,-5.2786,-5.2824,-5.306,-5.2933,-5.2935,-5.2998,-5.2987,-5.3068,-5.3075,-5.3075,-5.326,-5.3292,-5.3401,-5.3211,-5.3733,-5.3748,-5.3761,-5.3884,-5.3912,-5.3936,0,0,0,0,0,-5.2584,-5.2751,-5.2722,-5.2755,-5.2923,-5.3067,-5.3089,-5.3082,-5.3007,-5.3089,-5.312,-5.3072,-5.3369,-5.3278,-5.3314,-5.3428,-5.3726,-5.3743,-5.376,-5.3872,-5.3907,-5.3936,0,0,0,0,0,0,-5.2697,-5.2759,-5.2728,-5.2921,-5.2989,-5.3051,-5.3154,-5.3119,-5.3212,-5.3197,-5.3188,-5.3208,-5.3389,-5.3426,-5.3324,-5.3641,-5.3537,-5.3561,-5.361,-5.3643,-5.3669,-5.3656,-5.3222,0,0,0,0,0,-5.2743,-5.2851,-5.2902,-5.3067,-5.3102,-5.3123,-5.3185,-5.3174,-5.3245,-5.3275,-5.3318,-5.3392,-5.3502,-5.3575,-5.3678,-5.3889,-5.3907,-5.3986,-5.4012,-5.4033,-5.4054,-5.417,-5.4206,-5.3823,-5.3823,-5.3823,0,0,-5.2842,-5.289,-5.2959,-5.3091,-5.3142,-5.3257,-5.3148,-5.3274,-5.336,-5.3295,-5.3461,-5.3496,-5.3578,-5.3772,-5.3859,-5.3808,-5.4164,-5.4054,-5.407,-5.4081,-5.4191,-5.4227,-5.426,-5.3834,-5.3832,-5.3831,0,0,-5.308,-5.3126,-5.3269,-5.3323,-5.3401,-5.3413,-5.3448,-5.3516,-5.3536,-5.3702,-5.3655,-5.376,-5.3949,-5.4009,-5.4065,-5.4328,-5.4289,-5.4363,-5.4499,-5.4612,-5.4642,-5.4669,-5.4764,-5.4798,-5.4384,-5.4384,-5.4385,0,-5.3194,-5.3362,-5.3349,-5.3478,-5.3539,-5.3482,-5.3629,-5.3682,-5.3792,-5.3837,-5.3777,-5.4014,-5.4065,-5.4273,-5.4337,-5.4383,-5.4425,-5.4353,-5.4638,-5.4665,-5.469,-5.4781,-5.4816,-5.4393,-5.4392,-5.4391,-5.439,0,-5.3498,-5.3616,-5.3723,-5.3827,-5.3899,-5.4038,-5.4048,-5.4124,-5.4108,-5.4128,-5.4299,-5.4359,-5.4474,-5.4522,-5.4509,-5.4729,-5.4695,-5.4638,-5.4532,-5.4735,-5.482,-5.4855,-5.4405,-5.4402,-5.4399,-5.4397,0,0,-5.3811,-5.3905,-5.3945,-5.3992,-5.4074,-5.4167,-5.4304,-5.4413,-5.4479,-5.4558,-5.4674,-5.4836,-5.4783,-5.4846,-5.4839,-5.4938,-5.5144,-5.4869,-5.4871,-5.4919,-5.5393,-5.5436,-5.5476,-5.5119,-5.5125,-5.513,-5.5386,0,-5.4055,-5.429,-5.4282,-5.4503,-5.4613,-5.4561,-5.4681,-5.4747,-5.477,-5.4869,-5.4896,-5.501,-5.4932,-5.497,-5.5066,-5.5099,-5.524,-5.508,-5.523,-5.5235,-5.521,-5.552,-5.5565,-5.5804,-5.5419,-5.5425,-5.5429,0,-5.437,-5.4456,-5.4686,-5.4753,-5.4799,-5.4906,-5.5007,-5.5101,-5.5176,-5.5186,-5.5257,-5.5235,-5.5377,-5.5268,-5.5466,-5.5357,-5.5419,-5.5444,-5.5454,-5.5468,-5.5344,-5.5543,-5.5879,-5.5915,-5.5481,-5.5477,-5.5473,0,-5.4576,-5.4749,-5.4909,-5.4951,-5.5033,-5.511,-5.5149,-5.5216,-5.5283,-5.5373,-5.5416,-5.5522,-5.5581,-5.5665,-5.5674,-5.5593,-5.5874,-5.5764,-5.5888,-5.5888,-5.595,-5.5946,-5.6301,-5.5989,-5.5989,-5.5988,-5.5987,0,-5.4849,-5.4992,-5.5003,-5.5102,-5.5262,-5.5254,-5.5414,-5.5446,-5.5507,-5.5613,-5.5577,-5.5679,-5.5683,-5.5788,-5.5796,-5.596,-5.5987,-5.6001,-5.6001,-5.6004,-5.6003,-5.6044,-5.6028,-5.5997,-5.5995,-5.5993,-5.5992,0,-5.5105,-5.5118,-5.5289,-5.5353,-5.5372,-5.5488,-5.5543,-5.5639,-5.5659,-5.5794,-5.5826,-5.5858,-5.598,-5.5996,-5.6141,-5.6146,-5.6343,-5.6326,-5.6316,-5.6314,-5.6437,-5.6425,-5.6832,-5.6885,-5.6538,-5.6541,-5.6544,0,-5.5278,-5.5387,-5.5461,-5.5528,-5.557,-5.5679,-5.5746,-5.5744,-5.5817,-5.5911,-5.5996,-5.6114,-5.6208,-5.6406,-5.6445,-5.6555,-5.6541,-5.6676,-5.6557,-5.6557,-5.6544,-5.6537,-5.6549,-5.6699,-5.6703,-5.6706,-5.6708,0,-5.5585,-5.5585,-5.5682,-5.5782,-5.5862,-5.5942,-5.6016,-5.6075,-5.6082,-5.6166,-5.6289,-5.6361,-5.6507,-5.6626,-5.6735,-5.6778,-5.6747,-5.6745,-5.678,-5.6784,-5.6774,-5.6781,-5.6379,-5.6736,-5.6733,-5.6731,-5.673,-5.6728,-5.5805,-5.5899,-5.5966,-5.6076,-5.6131,-5.6202,-5.6295,-5.6326,-5.6427,-5.6543,-5.6537,-5.6672,-5.6747,-5.689,-5.6941,-5.705,-5.7006,-5.7056,-5.7069,-5.7081,-5.7093,-5.6756,-5.707,-5.7069,-5.7068,-5.7068,-5.7067,0,-5.6109,-5.615,-5.625,-5.6355,-5.6442,-5.64,-5.6482,-5.6558,-5.6677,-5.6747,-5.684,-5.6983,-5.7098,-5.7145,-5.7259,-5.7337,-5.7325,-5.7367,-5.7361,-5.7372,-5.7126,-5.7084,-5.7374,-5.7374,-5.7374,-5.7374,-5.7374,-5.7374,-5.6278,-5.6435,-5.6445,-5.6631,-5.6672,-5.6801,-5.6852,-5.6918,-5.6974,-5.7133,-5.7228,-5.7257,-5.7319,-5.7437,-5.7542,-5.7554,-5.7598,-5.7646,-5.7652,-5.742,-5.7389,-5.736,-5.7321,-5.7656,-5.7656,-5.7889,-5.7891,-5.7893]},{"header":{"parameterUnit":"m.s-1","parameterCategory":1,"la1":30.2991,"la2":30.254,"lo1":-89.0895,"lo2":-89.0444,"dy":0.0017,"dx":0.0017,"nx":28,"ny":28,"refTime":"2024-12-26T09:00:00:Z","depth":0,"parameterNumber":3,"parameterNumberName":"V-component_of_WINDS"},"data":[0,0,0,0,0,0,0,0,0,0,0,0,0,0,0,0,0,0,0,0,0,0,0,0,0,0,0,0,0,0,0,0,0,0,0,0,0,0,0,0,0,0,0,0,0,0,0,0,0,0,0,0,0,0,0,0,0,0,-1.8166,-1.8166,0,-1.8161,-1.8161,-1.8161,-1.8152,-1.8152,-1.8152,-1.8151,-1.8146,-1.8146,-1.8146,0,0,0,0,0,0,0,0,0,0,0,0,0,-1.8165,-1.8165,-1.8166,-1.8166,-1.8166,-1.8161,-1.8161,-1.8161,-1.8152,-1.8152,-1.8152,-1.8151,-1.8146,-1.8146,-1.8146,0,0,0,0,0,0,0,0,0,0,0,0,0,-1.8163,-1.8165,-1.8166,-1.8161,-1.816,-1.8161,-1.8161,-1.8161,-1.8152,-1.8152,-1.8151,-1.8151,-1.8146,-1.8146,-1.8146,-1.8151,0,0,-1.8146,-1.8146,0,0,0,0,0,0,0,0,-1.8163,-1.8163,-1.8162,-1.8161,-1.8161,-1.8157,-1.8159,-1.8158,-1.8152,-1.8155,-1.8151,-1.8151,-1.8149,-1.8149,-1.8149,-1.8151,-1.815,-1.8146,-1.8146,-1.8146,-1.8146,0,0,0,0,0,0,0,-1.8164,-1.8164,-1.8164,-1.8162,-1.8161,-1.8158,-1.8157,-1.8158,-1.8154,-1.8155,-1.8154,-1.8154,-1.8149,-1.8149,-1.8149,-1.815,-1.8146,-1.8146,-1.8146,-1.8146,-1.8153,-1.8154,0,0,0,0,0,0,-1.8165,-1.8164,-1.8164,-1.8164,-1.8162,-1.8158,-1.8158,-1.8158,-1.8154,-1.8153,-1.8154,-1.8153,-1.8149,-1.8149,-1.8148,-1.8153,-1.8146,-1.8146,-1.8146,-1.8153,-1.8153,-1.8154,0,0,0,0,0,0,-1.8165,-1.8165,-1.8165,-1.8164,-1.8163,-1.8158,-1.8159,-1.8158,-1.8158,-1.8153,-1.8152,-1.8155,-1.8149,-1.8148,-1.815,-1.8153,-1.8146,-1.8146,-1.8153,-1.8153,-1.8154,-1.8163,0,0,0,0,0,0,-1.8165,-1.8165,-1.8168,-1.8164,-1.8163,-1.8167,-1.816,-1.8159,-1.8158,-1.8157,-1.8154,-1.8153,-1.8148,-1.815,-1.815,-1.8152,-1.8146,-1.8153,-1.8153,-1.8153,-1.8162,-1.8163,-1.8164,0,0,0,0,0,-1.8165,-1.8171,-1.8168,-1.8168,-1.8167,-1.8167,-1.8167,-1.8162,-1.8159,-1.8161,-1.8157,-1.8153,-1.8152,-1.815,-1.815,-1.8153,-1.8153,-1.8153,-1.8153,-1.8162,-1.8163,-1.8164,0,0,0,0,0,0,-1.8176,-1.8171,-1.8167,-1.8172,-1.817,-1.8166,-1.8169,-1.8164,-1.8163,-1.8162,-1.8156,-1.8155,-1.8157,-1.8155,-1.8153,-1.8156,-1.8151,-1.8152,-1.8158,-1.8159,-1.816,-1.8161,-1.8146,0,0,0,0,0,-1.8179,-1.818,-1.8175,-1.818,-1.8179,-1.8174,-1.8174,-1.817,-1.8168,-1.8167,-1.8163,-1.8161,-1.8159,-1.8159,-1.8158,-1.8161,-1.816,-1.8163,-1.8164,-1.8165,-1.8166,-1.8165,-1.8167,-1.8155,-1.8155,-1.8155,0,0,-1.8185,-1.8182,-1.8184,-1.8182,-1.818,-1.818,-1.8173,-1.8175,-1.8174,-1.8167,-1.8168,-1.8165,-1.8161,-1.8163,-1.8164,-1.8162,-1.8168,-1.8166,-1.8166,-1.8167,-1.8166,-1.8167,-1.8168,-1.8155,-1.8155,-1.8155,0,0,-1.8197,-1.8196,-1.8199,-1.8196,-1.8193,-1.8189,-1.819,-1.8185,-1.8183,-1.8184,-1.8177,-1.8176,-1.8175,-1.8172,-1.8171,-1.8178,-1.8174,-1.8178,-1.8184,-1.8184,-1.8185,-1.8185,-1.8187,-1.8188,-1.8178,-1.8178,-1.8178,0,-1.8206,-1.8207,-1.8201,-1.8202,-1.8201,-1.8193,-1.8195,-1.8193,-1.819,-1.8188,-1.8185,-1.8182,-1.8179,-1.818,-1.8181,-1.818,-1.818,-1.8179,-1.8185,-1.8186,-1.8186,-1.8188,-1.8189,-1.8179,-1.8179,-1.8179,-1.8179,0,-1.8217,-1.8217,-1.822,-1.8216,-1.8215,-1.8217,-1.821,-1.8209,-1.8205,-1.8201,-1.82,-1.8196,-1.8193,-1.8193,-1.8189,-1.8192,-1.819,-1.8186,-1.8181,-1.8188,-1.8189,-1.819,-1.818,-1.8179,-1.8179,-1.8179,0,0,-1.8238,-1.8229,-1.823,-1.8227,-1.8221,-1.8221,-1.8221,-1.8218,-1.8217,-1.8214,-1.8214,-1.8211,-1.8207,-1.8205,-1.82,-1.82,-1.8205,-1.8196,-1.8195,-1.8197,-1.8206,-1.8209,-1.821,-1.8201,-1.8201,-1.8201,-1.8206,0,-1.8249,-1.825,-1.8243,-1.8245,-1.8244,-1.8235,-1.8235,-1.8231,-1.8226,-1.8224,-1.8219,-1.8217,-1.8212,-1.821,-1.821,-1.8204,-1.8206,-1.8204,-1.82,-1.82,-1.8201,-1.8211,-1.8215,-1.822,-1.8207,-1.8207,-1.8207,0,-1.8262,-1.8259,-1.8261,-1.8253,-1.8252,-1.8252,-1.8248,-1.8246,-1.824,-1.8237,-1.8233,-1.8227,-1.8225,-1.822,-1.8217,-1.8215,-1.8213,-1.821,-1.821,-1.8209,-1.8204,-1.8211,-1.8222,-1.8222,-1.8208,-1.8208,-1.8208,0,-1.8276,-1.8272,-1.8273,-1.827,-1.8261,-1.8261,-1.8257,-1.8251,-1.8249,-1.8244,-1.8242,-1.8238,-1.8235,-1.8231,-1.8224,-1.8221,-1.8221,-1.8215,-1.8217,-1.8217,-1.8218,-1.8218,-1.8229,-1.8217,-1.8217,-1.8217,-1.8217,0,-1.8289,-1.8291,-1.8279,-1.8279,-1.8279,-1.827,-1.8271,-1.8266,-1.826,-1.8258,-1.825,-1.8248,-1.8238,-1.8234,-1.8228,-1.8226,-1.8225,-1.8221,-1.822,-1.8222,-1.8223,-1.8221,-1.822,-1.8217,-1.8217,-1.8217,-1.8217,0,-1.8306,-1.8298,-1.8298,-1.8288,-1.8286,-1.8286,-1.8278,-1.8277,-1.827,-1.8268,-1.8267,-1.8257,-1.8252,-1.8244,-1.8237,-1.8233,-1.8231,-1.8229,-1.8234,-1.8233,-1.8235,-1.8234,-1.8244,-1.8245,-1.8233,-1.8233,-1.8233,0,-1.8315,-1.8316,-1.8306,-1.8304,-1.83,-1.8297,-1.8294,-1.8284,-1.8281,-1.8273,-1.8273,-1.8267,-1.8263,-1.8255,-1.8247,-1.8241,-1.8238,-1.8242,-1.8238,-1.8239,-1.8238,-1.8238,-1.8237,-1.8243,-1.8244,-1.8244,-1.8244,0,-1.8332,-1.8327,-1.8323,-1.8317,-1.8314,-1.8309,-1.8304,-1.8302,-1.8291,-1.8288,-1.8283,-1.8279,-1.8271,-1.8265,-1.8258,-1.8253,-1.8246,-1.8245,-1.8245,-1.8248,-1.825,-1.8248,-1.8236,-1.8245,-1.8245,-1.8245,-1.8245,-1.8245,-1.8345,-1.8344,-1.8336,-1.8331,-1.8326,-1.832,-1.8318,-1.8311,-1.8307,-1.8299,-1.8293,-1.8288,-1.828,-1.8269,-1.8264,-1.8259,-1.8256,-1.8257,-1.8257,-1.8257,-1.8258,-1.8251,-1.8258,-1.8258,-1.8258,-1.8258,-1.8258,0,-1.836,-1.8354,-1.835,-1.8342,-1.8337,-1.8331,-1.8323,-1.832,-1.8316,-1.8309,-1.8303,-1.8296,-1.829,-1.828,-1.8273,-1.8271,-1.8268,-1.8269,-1.827,-1.8268,-1.8261,-1.8261,-1.8272,-1.8272,-1.8272,-1.8272,-1.8272,-1.8272,-1.8368,-1.8366,-1.836,-1.8354,-1.8347,-1.8342,-1.8338,-1.8333,-1.8327,-1.8319,-1.8313,-1.8307,-1.8298,-1.829,-1.8283,-1.828,-1.8278,-1.828,-1.8277,-1.827,-1.8269,-1.8268,-1.8268,-1.828,-1.828,-1.8284,-1.8284,-1.8284]}]]